When you browse on this site, cookies collect data to enhance your experience and personalize the content and advertising you see.
Visit our Privacy Policy to learn more. By continuing to use the site, you agree to this use of cookies and data.
  • En España
  • Lista de países
  • Para 7 días
  • Temperatura del agua
  • El tiempo en el mapa
  • Informadores
  • user-avatar
    Iniciar sesión

    Tiempo cada hora Vishkov

    Hoy, 1 Junio, Lunes

    Tiempo Temperatura Precipitaciones Viento Presión Humedad
    00:00 +12°C° 0 mm 2 mps 741 mmHg 95%
    01:00 +10°C° 0 mm 2 mps 741 mmHg 95%
    02:00 +10°C° 0 mm 2 mps 741 mmHg 94%
    03:00 +10°C° 0 mm 2 mps 741 mmHg 94%
    04:00 +9°C° 0 mm 2 mps 741 mmHg 94%
    05:00 +12°C° 0 mm 2 mps 741 mmHg 91%
    06:00 +13°C° 0 mm 3 mps 741 mmHg 88%
    07:00 +16°C° 0 mm 3 mps 742 mmHg 85%
    08:00 +17°C° 0.1 mm 4 mps 742 mmHg 76%
    09:00 +18°C° 0.1 mm 4 mps 742 mmHg 68%
    10:00 +20°C° 0.1 mm 5 mps 741 mmHg 60%
    11:00 +20°C° 0 mm 5 mps 741 mmHg 58%
    12:00 +20°C° 0 mm 5 mps 741 mmHg 57%
    13:00 +21°C° 0 mm 5 mps 741 mmHg 56%
    14:00 +21°C° 0 mm 5 mps 741 mmHg 57%
    15:00 +20°C° 0 mm 5 mps 741 mmHg 58%
    16:00 +20°C° 0 mm 5 mps 741 mmHg 59%
    17:00 +17°C° 0 mm 5 mps 741 mmHg 64%
    18:00 +17°C° 0 mm 4 mps 741 mmHg 68%
    19:00 +14°C° 0 mm 4 mps 741 mmHg 73%
    20:00 +13°C° 0 mm 3 mps 741 mmHg 74%
    21:00 +11°C° 0 mm 3 mps 741 mmHg 76%
    22:00 +9°C° 0 mm 2 mps 741 mmHg 78%
    23:00 +9°C° 0 mm 2 mps 741 mmHg 80%

    Mañana, 2 Junio, Martes

    Tiempo Temperatura Precipitaciones Viento Presión Humedad
    00:00 +8°C° 0 mm 2 mps 741 mmHg 83%
    01:00 +8°C° 0 mm 2 mps 741 mmHg 85%
    02:00 +8°C° 0 mm 2 mps 741 mmHg 87%
    03:00 +8°C° 0 mm 2 mps 740 mmHg 88%
    04:00 +8°C° 0 mm 2 mps 740 mmHg 89%
    05:00 +9°C° 0 mm 2 mps 740 mmHg 84%
    06:00 +11°C° 0 mm 3 mps 740 mmHg 79%
    07:00 +13°C° 0 mm 4 mps 740 mmHg 74%
    08:00 +14°C° 0.1 mm 4 mps 740 mmHg 70%
    09:00 +15°C° 0.1 mm 4 mps 739 mmHg 66%
    10:00 +16°C° 0.1 mm 5 mps 739 mmHg 63%
    11:00 +16°C° 0.1 mm 5 mps 739 mmHg 60%
    12:00 +17°C° 0.1 mm 5 mps 739 mmHg 56%
    13:00 +17°C° 0.1 mm 5 mps 739 mmHg 53%
    14:00 +17°C° 0.1 mm 5 mps 738 mmHg 54%
    15:00 +17°C° 0.1 mm 5 mps 738 mmHg 55%
    16:00 +17°C° 0.1 mm 5 mps 737 mmHg 57%
    17:00 +17°C° 0.1 mm 4 mps 737 mmHg 63%
    18:00 +16°C° 0.1 mm 3 mps 737 mmHg 69%
    19:00 +14°C° 0.1 mm 2 mps 737 mmHg 74%
    20:00 +13°C° 0 mm 2 mps 737 mmHg 77%
    21:00 +12°C° 0 mm 1 mps 737 mmHg 80%
    22:00 +11°C° 0 mm 1 mps 737 mmHg 83%
    23:00 +11°C° 0.4 mm 1 mps 736 mmHg 86%

    Pasado mañana, 3 Junio, Miércoles

    Tiempo Temperatura Precipitaciones Viento Presión Humedad
    00:00 +11°C° 0.4 mm 1 mps 736 mmHg 89%
    01:00 +11°C° 0.4 mm 1 mps 736 mmHg 92%
    02:00 +11°C° 0.1 mm 1 mps 735 mmHg 93%
    03:00 +11°C° 0.1 mm 1 mps 735 mmHg 93%
    04:00 +10°C° 0.1 mm 1 mps 734 mmHg 94%
    05:00 +12°C° 0.1 mm 2 mps 734 mmHg 91%
    06:00 +13°C° 0.1 mm 2 mps 734 mmHg 89%
    07:00 +14°C° 0.1 mm 2 mps 734 mmHg 86%
    08:00 +14°C° 0.3 mm 3 mps 734 mmHg 83%
    09:00 +16°C° 0.3 mm 3 mps 733 mmHg 79%
    10:00 +17°C° 0.3 mm 4 mps 733 mmHg 75%
    11:00 +18°C° 0.3 mm 3 mps 733 mmHg 72%
    12:00 +18°C° 0.3 mm 3 mps 733 mmHg 69%
    13:00 +19°C° 0.3 mm 2 mps 732 mmHg 65%
    14:00 +19°C° 0.2 mm 2 mps 732 mmHg 64%
    15:00 +19°C° 0.2 mm 2 mps 732 mmHg 63%
    16:00 +19°C° 0.2 mm 2 mps 732 mmHg 62%
    17:00 +18°C° 0.1 mm 2 mps 731 mmHg 67%
    18:00 +17°C° 0.1 mm 2 mps 731 mmHg 72%
    19:00 +15°C° 0.1 mm 1 mps 731 mmHg 76%
    20:00 +14°C° 0 mm 1 mps 731 mmHg 76%
    21:00 +13°C° 0 mm 1 mps 731 mmHg 75%
    22:00 +12°C° 0 mm 1 mps 731 mmHg 75%
    23:00 +11°C° 0 mm 1 mps 731 mmHg 77%

    4 Junio, Jueves

    Tiempo Temperatura Precipitaciones Viento Presión Humedad
    00:00 +10°C° 0 mm 1 mps 731 mmHg 79%
    01:00 +10°C° 0 mm 1 mps 730 mmHg 81%
    02:00 +9°C° 0 mm 1 mps 730 mmHg 83%
    03:00 +9°C° 0 mm 1 mps 730 mmHg 85%
    04:00 +8°C° 0 mm 1 mps 729 mmHg 87%
    05:00 +10°C° 0 mm 1 mps 729 mmHg 81%
    06:00 +12°C° 0 mm 1 mps 729 mmHg 76%
    07:00 +14°C° 0 mm 1 mps 729 mmHg 70%
    08:00 +15°C° 0 mm 1 mps 729 mmHg 67%
    09:00 +17°C° 0 mm 2 mps 729 mmHg 64%
    10:00 +19°C° 0 mm 2 mps 729 mmHg 61%
    11:00 +20°C° 0 mm 2 mps 728 mmHg 61%
    12:00 +20°C° 0 mm 3 mps 728 mmHg 61%
    13:00 +21°C° 0 mm 3 mps 727 mmHg 61%
    14:00 +21°C° 0 mm 3 mps 727 mmHg 64%
    15:00 +21°C° 0 mm 4 mps 726 mmHg 66%
    16:00 +21°C° 0 mm 4 mps 726 mmHg 68%
    17:00 +20°C° 0.2 mm 4 mps 725 mmHg 74%
    18:00 +19°C° 0.2 mm 3 mps 725 mmHg 81%
    19:00 +18°C° 0.2 mm 3 mps 724 mmHg 87%
    20:00 +17°C° 0.1 mm 3 mps 724 mmHg 89%
    21:00 +17°C° 0.1 mm 4 mps 724 mmHg 91%
    22:00 +15°C° 0.1 mm 4 mps 724 mmHg 93%
    23:00 +14°C° 0 mm 4 mps 723 mmHg 93%

    5 Junio, Viernes

    Tiempo Temperatura Precipitaciones Viento Presión Humedad
    00:00 +14°C° 0 mm 3 mps 723 mmHg 94%
    01:00 +13°C° 0 mm 3 mps 723 mmHg 95%
    02:00 +13°C° 0.1 mm 3 mps 723 mmHg 95%
    03:00 +13°C° 0.1 mm 3 mps 724 mmHg 95%
    04:00 +13°C° 0.1 mm 3 mps 724 mmHg 95%
    05:00 +14°C° 0 mm 3 mps 724 mmHg 93%
    06:00 +14°C° 0 mm 3 mps 724 mmHg 91%
    07:00 +16°C° 0 mm 3 mps 724 mmHg 89%
    08:00 +16°C° 0.1 mm 3 mps 725 mmHg 90%
    09:00 +16°C° 0.1 mm 2 mps 725 mmHg 91%
    10:00 +15°C° 0.1 mm 2 mps 726 mmHg 91%
    11:00 +15°C° 0.4 mm 2 mps 726 mmHg 93%
    12:00 +15°C° 0.4 mm 2 mps 726 mmHg 94%
    13:00 +15°C° 0.4 mm 2 mps 727 mmHg 95%
    14:00 +13°C° 0.8 mm 3 mps 727 mmHg 94%
    15:00 +12°C° 0.8 mm 4 mps 728 mmHg 94%
    16:00 +10°C° 0.8 mm 6 mps 728 mmHg 93%
    17:00 +9°C° 1 mm 5 mps 728 mmHg 93%
    18:00 +9°C° 1 mm 5 mps 729 mmHg 93%
    19:00 +10°C° 1 mm 4 mps 729 mmHg 93%
    20:00 +10°C° 0.1 mm 3 mps 730 mmHg 92%
    21:00 +10°C° 0.1 mm 3 mps 730 mmHg 92%
    22:00 +10°C° 0.1 mm 2 mps 731 mmHg 92%
    23:00 +9°C° 0 mm 2 mps 731 mmHg 91%

    6 Junio, Sábado

    Tiempo Temperatura Precipitaciones Viento Presión Humedad
    00:00 +9°C° 0 mm 2 mps 732 mmHg 90%
    01:00 +9°C° 0 mm 2 mps 732 mmHg 89%
    02:00 +8°C° 0 mm 2 mps 732 mmHg 90%
    03:00 +7°C° 0 mm 2 mps 732 mmHg 90%
    04:00 +7°C° 0 mm 2 mps 733 mmHg 90%
    05:00 +8°C° 0 mm 2 mps 733 mmHg 85%
    06:00 +10°C° 0 mm 2 mps 733 mmHg 81%
    07:00 +13°C° 0 mm 1 mps 734 mmHg 76%
    08:00 +15°C° 0 mm 2 mps 734 mmHg 70%
    09:00 +17°C° 0 mm 3 mps 734 mmHg 65%
    10:00 +18°C° 0 mm 3 mps 734 mmHg 59%
    11:00 +18°C° 0.3 mm 3 mps 734 mmHg 63%
    12:00 +18°C° 0.3 mm 3 mps 734 mmHg 68%
    13:00 +18°C° 0.3 mm 4 mps 734 mmHg 72%
    14:00 +19°C° 0.2 mm 3 mps 734 mmHg 70%
    15:00 +19°C° 0.2 mm 3 mps 734 mmHg 68%
    16:00 +20°C° 0.2 mm 3 mps 734 mmHg 66%
    17:00 +19°C° 0.2 mm 3 mps 734 mmHg 72%
    18:00 +18°C° 0.2 mm 2 mps 734 mmHg 78%
    19:00 +17°C° 0.2 mm 2 mps 734 mmHg 83%
    20:00 +15°C° 0 mm 2 mps 734 mmHg 86%
    21:00 +14°C° 0 mm 1 mps 735 mmHg 88%
    22:00 +13°C° 0 mm 1 mps 735 mmHg 91%
    23:00 +12°C° 0 mm 1 mps 735 mmHg 91%
    Mostrar más